Location: Beacon Field Observatory
(38.7700°N, 77.0829°W)
Time: 00:02:55
(UTC-05:00)

UKube-1 - Pass Details

Date: 14 December 2019
Orbit: 614 x 618 km, 98.5° (Epoch: 20 January)

Event Time Altitude Azimuth Distance (km) Brightness Sun altitude
Rises 18:50:20 0° 354° (N) 2,898 ? -23.2°
Reaches altitude 10° 18:53:13 10° 333° (NNW) 1,988 ? -23.7°
Maximum altitude 18:55:52 16° 295° (WNW) 1,615 ? -24.2°
Drops below altitude 10° 18:58:30 10° 257° (WSW) 1,981 ? -24.7°
Sets 19:01:23 0° 236° (SW) 2,882 ? -25.3°
